Location: Harburg
(48.7667°N, 10.6667°E)
Time: 05:41:14
(UTC+00:00)

Cosmos 1092 Rocket - Pass Details

Date: 18 September 2020
Orbit: 954 x 995 km, 82.9° (Epoch: 22 October)

Event Time Altitude Azimuth Distance (km) Brightness Sun altitude
Rises 19:48:37 0° 349° (NNW) 3,645 7.6 -23.5°
Reaches altitude 10° 19:51:07 10° 347° (NNW) 2,697 6.9 -23.9°
Maximum altitude 19:57:15 72° 265° (W) 1,008 4.1 -24.7°
Enters shadow 20:00:16 32° 188° (S) 1,593 4.9 -25.1°
